| time (UTC) | temp F | wind direction | speed MPH | gust MPH | rain 1hr in | rain 24hr in | rain mn in | humidity % | barometer mb |
| 20260508102558 | 61 | 46 | 5.0 | 11.0 | 0.00 | 0.00 | 0.00 | 71 | 1015.3 |
| 20260508102059 | 61 | 70 | 2.0 | 11.0 | 0.00 | 0.00 | 0.00 | 76 | 1015.4 |
| 20260508101627 | 59 | 83 | 4.0 | 8.0 | 0.00 | 0.00 | 0.00 | 74 | 1015.5 |
| 20260508101059 | 59 | 114 | 1.0 | 4.0 | 0.00 | 0.00 | 0.00 | 75 | 1015.5 |
| 20260508100558 | 59 | 46 | 1.0 | 7.0 | 0.00 | 0.00 | 0.00 | 74 | 1015.5 |
| 20260508100109 | 59 | 123 | 2.0 | 8.0 | 0.00 | 0.00 | 0.00 | 76 | 1015.4 |
| 20260508095601 | 59 | 157 | 4.0 | 8.0 | 0.00 | 0.00 | 0.00 | 73 | 1015.5 |
| 20260508095058 | 60 | 58 | 4.0 | 7.0 | 0.00 | 0.00 | 0.00 | 74 | 1015.3 |
| 20260508094617 | 59 | 103 | 2.0 | 7.0 | 0.00 | 0.00 | 0.00 | 78 | 1015.3 |
| 20260508094058 | 58 | 114 | 1.0 | 7.0 | 0.00 | 0.00 | 0.00 | 81 | 1015.5 |
| 20260508093558 | 57 | 79 | 2.0 | 7.0 | 0.00 | 0.00 | 0.00 | 79 | 1015.5 |
| 20260508093101 | 56 | 87 | 1.0 | 7.0 | 0.00 | 0.00 | 0.00 | 79 | 1015.5 |
| 20260508092559 | 57 | 86 | 2.0 | 7.0 | 0.00 | 0.00 | 0.00 | 78 | 1015.6 |
| 20260508092101 | 57 | 96 | 1.0 | 7.0 | 0.00 | 0.00 | 0.00 | 79 | 1015.6 |
| 20260508091557 | 57 | 98 | 3.0 | 7.0 | 0.00 | 0.00 | 0.00 | 78 | 1015.5 |
| 20260508091059 | 56 | 98 | 2.0 | 4.0 | 0.00 | 0.00 | 0.00 | 80 | 1015.6 |
| 20260508090559 | 56 | 80 | 0.0 | 4.0 | 0.00 | 0.00 | 0.00 | 80 | 1015.5 |
| 20260508090110 | 56 | 157 | 1.0 | 7.0 | 0.00 | 0.00 | 0.00 | 80 | 1015.6 |
| 20260508085558 | 56 | 155 | 2.0 | 7.0 | 0.00 | 0.00 | 0.00 | 80 | 1015.6 |
| 20260508085058 | 56 | 128 | 1.0 | 6.0 | 0.00 | 0.00 | 0.00 | 80 | 1015.5 |
| 20260508084611 | 56 | 183 | 1.0 | 5.0 | 0.00 | 0.00 | 0.00 | 81 | 1015.5 |
| 20260508084059 | 56 | 130 | 0.0 | 5.0 | 0.00 | 0.00 | 0.00 | 81 | 1015.6 |
| 20260508083601 | 55 | 162 | 1.0 | 7.0 | 0.00 | 0.00 | 0.00 | 80 | 1015.6 |
| 20260508083123 | 55 | 0 | 1.0 | 8.0 | 0.00 | 0.00 | 0.00 | 80 | 1015.5 |
| 20260508082558 | 55 | 109 | 3.0 | 8.0 | 0.00 | 0.00 | 0.00 | 80 | 1015.6 |
| 20260508082058 | 56 | 122 | 3.0 | 9.0 | 0.00 | 0.00 | 0.00 | 79 | 1015.6 |
| 20260508081559 | 56 | 98 | 3.0 | 9.0 | 0.00 | 0.00 | 0.00 | 78 | 1015.6 |
| 20260508081058 | 56 | 72 | 3.0 | 9.0 | 0.00 | 0.00 | 0.00 | 79 | 1015.6 |
| 20260508080601 | 56 | 142 | 2.0 | 9.0 | 0.00 | 0.00 | 0.00 | 79 | 1015.6 |
| 20260508080059 | 56 | 175 | 1.0 | 7.0 | 0.00 | 0.00 | 0.00 | 80 | 1015.4 |
| 20260508075559 | 56 | 155 | 2.0 | 7.0 | 0.00 | 0.00 | 0.00 | 77 | 1015.5 |
| 20260508075058 | 56 | 101 | 3.0 | 7.0 | 0.00 | 0.00 | 0.00 | 76 | 1015.4 |
| 20260508074600 | 57 | 142 | 2.0 | 8.0 | 0.00 | 0.00 | 0.00 | 76 | 1015.3 |
| 20260508074058 | 57 | 141 | 2.0 | 8.0 | 0.00 | 0.00 | 0.00 | 75 | 1015.2 |
| 20260508073558 | 57 | 93 | 4.0 | 8.0 | 0.00 | 0.00 | 0.00 | 75 | 1015.2 |
| 20260508073103 | 57 | 51 | 2.0 | 8.0 | 0.00 | 0.00 | 0.00 | 74 | 1015.1 |
| 20260508072558 | 56 | 107 | 3.0 | 8.0 | 0.00 | 0.00 | 0.00 | 75 | 1015.0 |
| 20260508072058 | 56 | 94 | 3.0 | 7.0 | 0.00 | 0.00 | 0.00 | 77 | 1015.0 |
| 20260508071559 | 55 | 80 | 3.0 | 5.0 | 0.00 | 0.00 | 0.00 | 78 | 1015.0 |
| 20260508071058 | 55 | 67 | 1.0 | 4.0 | 0.00 | 0.00 | 0.00 | 78 | 1015.0 |
| 20260508070558 | 55 | 80 | 1.0 | 4.0 | 0.00 | 0.00 | 0.00 | 78 | 1015.1 |
| 20260508070101 | 54 | 32 | 1.0 | 3.0 | 0.00 | 0.00 | 0.00 | 80 | 1015.2 |
| 20260508065600 | 53 | 0 | 0.0 | 0.0 | 0.00 | 0.00 | 0.00 | 86 | 1015.1 |
| 20260508065059 | 52 | 0 | 0.0 | 0.0 | 0.00 | 0.00 | 0.00 | 86 | 1015.1 |
| 20260508064615 | 52 | 0 | 0.0 | 0.0 | 0.00 | 0.00 | 0.00 | 85 | 1015.2 |
| 20260508064059 | 52 | 0 | 0.0 | 0.0 | 0.00 | 0.00 | 0.00 | 86 | 1015.2 |
| 20260508063559 | 52 | 0 | 0.0 | 3.0 | 0.00 | 0.00 | 0.00 | 85 | 1015.2 |
| 20260508063103 | 52 | 0 | 0.0 | 3.0 | 0.00 | 0.00 | 0.00 | 83 | 1015.2 |
| 20260508062558 | 52 | 0 | 0.0 | 5.0 | 0.00 | 0.00 | 0.00 | 81 | 1015.1 |
| 20260508062058 | 52 | 0 | 0.0 | 5.0 | 0.00 | 0.00 | 0.00 | 81 | 1015.1 |
| 20260508061600 | 51 | 82 | 2.0 | 4.0 | 0.00 | 0.00 | 0.00 | 81 | 1015.0 |
| 20260508061101 | 51 | 67 | 1.0 | 4.0 | 0.00 | 0.00 | 0.00 | 82 | 1015.0 |
| 20260508060559 | 51 | 69 | 1.0 | 5.0 | 0.00 | 0.00 | 0.00 | 82 | 1015.0 |
| 20260508060057 | 51 | 69 | 2.0 | 6.0 | 0.00 | 0.00 | 0.00 | 82 | 1015.0 |
| 20260508055601 | 51 | 74 | 2.0 | 6.0 | 0.00 | 0.00 | 0.00 | 83 | 1015.0 |
| 20260508055058 | 51 | 92 | 2.0 | 6.0 | 0.00 | 0.00 | 0.00 | 83 | 1014.9 |
| 20260508054605 | 51 | 83 | 3.0 | 7.0 | 0.00 | 0.00 | 0.00 | 84 | 1014.7 |
| 20260508054059 | 50 | 101 | 2.0 | 7.0 | 0.00 | 0.00 | 0.00 | 84 | 1014.9 |
| 20260508053558 | 50 | 82 | 3.0 | 6.0 | 0.00 | 0.00 | 0.00 | 85 | 1014.6 |
| 20260508053102 | 50 | 102 | 2.0 | 8.0 | 0.00 | 0.00 | 0.00 | 85 | 1014.7 |
| 20260508052600 | 50 | 62 | 3.0 | 8.0 | 0.00 | 0.00 | 0.00 | 85 | 1014.7 |
| 20260508052058 | 50 | 84 | 4.0 | 8.0 | 0.00 | 0.00 | 0.00 | 84 | 1014.5 |
| 20260508051602 | 50 | 73 | 4.0 | 8.0 | 0.00 | 0.00 | 0.00 | 84 | 1014.5 |
| 20260508051059 | 50 | 64 | 4.0 | 7.0 | 0.00 | 0.00 | 0.00 | 84 | 1014.5 |
| 20260508050559 | 50 | 50 | 3.0 | 7.0 | 0.00 | 0.00 | 0.00 | 84 | 1014.6 |
| 20260508045558 | 50 | 94 | 2.0 | 6.0 | 0.00 | 0.00 | 0.00 | 84 | 1014.7 |
| 20260508045058 | 50 | 88 | 2.0 | 6.0 | 0.00 | 0.00 | 0.00 | 84 | 1014.7 |
| 20260508044602 | 50 | 80 | 2.0 | 7.0 | 0.00 | 0.00 | 0.00 | 84 | 1014.7 |
| 20260508044100 | 50 | 78 | 2.0 | 7.0 | 0.00 | 0.00 | 0.00 | 83 | 1014.8 |
| 20260508043558 | 50 | 53 | 2.0 | 7.0 | 0.00 | 0.00 | 0.00 | 83 | 1014.7 |
| 20260508043104 | 50 | 0 | 2.0 | 4.0 | 0.00 | 0.00 | 0.00 | 82 | 1014.9 |
| 20260508042558 | 50 | 0 | 0.0 | 4.0 | 0.00 | 0.00 | 0.00 | 82 | 1014.9 |
| 20260508042101 | 51 | 72 | 1.0 | 8.0 | 0.00 | 0.00 | 0.00 | 81 | 1014.9 |
| 20260508041602 | 51 | 94 | 2.0 | 8.0 | 0.00 | 0.00 | 0.00 | 81 | 1014.8 |
| 20260508041058 | 51 | 130 | 3.0 | 9.0 | 0.00 | 0.00 | 0.00 | 80 | 1014.7 |
| 20260508040558 | 51 | 57 | 4.0 | 9.0 | 0.00 | 0.00 | 0.00 | 79 | 1014.7 |
| 20260508040104 | 51 | 109 | 3.0 | 8.0 | 0.00 | 0.00 | 0.00 | 77 | 1014.7 |
| 20260508035559 | 51 | 96 | 2.0 | 8.0 | 0.00 | 0.00 | 0.00 | 77 | 1014.8 |
| 20260508035059 | 51 | 132 | 3.0 | 8.0 | 0.00 | 0.00 | 0.00 | 77 | 1014.9 |
| 20260508034604 | 51 | 71 | 2.0 | 8.0 | 0.00 | 0.00 | 0.00 | 77 | 1014.9 |
| 20260508034058 | 51 | 69 | 3.0 | 8.0 | 0.00 | 0.00 | 0.00 | 77 | 1014.9 |
| 20260508033558 | 51 | 97 | 3.0 | 9.0 | 0.00 | 0.00 | 0.00 | 77 | 1015.0 |
| 20260508033058 | 51 | 82 | 2.0 | 9.0 | 0.00 | 0.00 | 0.00 | 77 | 1014.8 |
| 20260508032559 | 51 | 100 | 2.0 | 7.0 | 0.00 | 0.00 | 0.00 | 76 | 1014.9 |
| 20260508032101 | 51 | 88 | 3.0 | 7.0 | 0.00 | 0.00 | 0.00 | 76 | 1014.8 |
| 20260508031559 | 51 | 89 | 2.0 | 7.0 | 0.00 | 0.00 | 0.00 | 76 | 1014.9 |
| 20260508031101 | 51 | 110 | 3.0 | 7.0 | 0.00 | 0.00 | 0.00 | 76 | 1014.9 |
| 20260508030558 | 51 | 0 | 2.0 | 7.0 | 0.00 | 0.00 | 0.00 | 76 | 1015.0 |
| 20260508030116 | 51 | 99 | 2.0 | 7.0 | 0.00 | 0.00 | 0.00 | 76 | 1015.0 |
| 20260508025557 | 51 | 77 | 2.0 | 6.0 | 0.00 | 0.00 | 0.00 | 76 | 1015.0 |
| 20260508025058 | 51 | 92 | 1.0 | 6.0 | 0.00 | 0.00 | 0.00 | 76 | 1015.1 |
| 20260508024558 | 51 | 68 | 2.0 | 6.0 | 0.00 | 0.00 | 0.00 | 76 | 1015.0 |
| 20260508024059 | 51 | 126 | 2.0 | 6.0 | 0.00 | 0.00 | 0.00 | 77 | 1015.1 |
| 20260508023559 | 51 | 124 | 2.0 | 6.0 | 0.00 | 0.00 | 0.00 | 76 | 1015.1 |
| 20260508023104 | 51 | 109 | 2.0 | 6.0 | 0.00 | 0.00 | 0.00 | 77 | 1015.1 |
| 20260508022558 | 51 | 102 | 1.0 | 4.0 | 0.00 | 0.00 | 0.00 | 77 | 1015.0 |
| 20260508022059 | 51 | 74 | 2.0 | 5.0 | 0.00 | 0.00 | 0.00 | 77 | 1015.1 |
| 20260508021601 | 51 | 79 | 2.0 | 5.0 | 0.00 | 0.00 | 0.00 | 77 | 1015.1 |
| 20260508021101 | 51 | 76 | 1.0 | 4.0 | 0.00 | 0.00 | 0.00 | 77 | 1015.0 |
| 20260508020558 | 51 | 105 | 1.0 | 4.0 | 0.00 | 0.00 | 0.00 | 76 | 1015.1 |
| 20260508020058 | 51 | 0 | 0.0 | 6.0 | 0.00 | 0.00 | 0.00 | 76 | 1015.0 |
| 20260508015558 | 51 | 112 | 1.0 | 6.0 | 0.00 | 0.00 | 0.00 | 75 | 1015.1 |
| 20260508015058 | 51 | 0 | 1.0 | 6.0 | 0.00 | 0.00 | 0.00 | 75 | 1015.0 |
| 20260508014600 | 51 | 140 | 1.0 | 8.0 | 0.00 | 0.00 | 0.00 | 75 | 1014.9 |
| 20260508014100 | 52 | 88 | 2.0 | 8.0 | 0.00 | 0.00 | 0.00 | 76 | 1015.0 |
| 20260508013601 | 52 | 105 | 2.0 | 7.0 | 0.00 | 0.00 | 0.00 | 75 | 1015.0 |
| 20260508013059 | 52 | 106 | 2.0 | 6.0 | 0.00 | 0.00 | 0.00 | 75 | 1015.0 |
| 20260508012559 | 52 | 83 | 1.0 | 4.0 | 0.00 | 0.00 | 0.00 | 75 | 1015.1 |
| 20260508012059 | 52 | 107 | 1.0 | 4.0 | 0.00 | 0.00 | 0.00 | 75 | 1015.2 |
| 20260508011557 | 52 | 93 | 1.0 | 5.0 | 0.00 | 0.00 | 0.00 | 74 | 1015.2 |
| 20260508011058 | 52 | 118 | 1.0 | 5.0 | 0.00 | 0.00 | 0.00 | 74 | 1015.2 |
| 20260508010602 | 52 | 99 | 1.0 | 8.0 | 0.00 | 0.00 | 0.00 | 74 | 1015.2 |
| 20260508010057 | 52 | 165 | 1.0 | 8.0 | 0.00 | 0.00 | 0.00 | 74 | 1015.1 |
| 20260508005559 | 52 | 80 | 2.0 | 6.0 | 0.00 | 0.00 | 0.00 | 73 | 1015.2 |
| 20260508005059 | 52 | 99 | 1.0 | 5.0 | 0.00 | 0.00 | 0.00 | 73 | 1015.2 |
| 20260508004602 | 52 | 129 | 1.0 | 5.0 | 0.00 | 0.00 | 0.00 | 73 | 1015.2 |
| 20260508004059 | 52 | 95 | 1.0 | 7.0 | 0.00 | 0.00 | 0.00 | 73 | 1015.2 |
| 20260508003559 | 52 | 101 | 1.0 | 7.0 | 0.00 | 0.00 | 0.00 | 72 | 1015.4 |
| 20260508003108 | 52 | 106 | 2.0 | 7.0 | 0.00 | 0.00 | 0.00 | 72 | 1015.3 |
| 20260508002559 | 52 | 83 | 0.0 | 3.0 | 0.00 | 0.00 | 0.00 | 72 | 1015.3 |
| 20260508002059 | 52 | 150 | 0.0 | 4.0 | 0.00 | 0.00 | 0.00 | 71 | 1015.4 |
| 20260508001600 | 52 | 0 | 0.0 | 7.0 | 0.00 | 0.00 | 0.00 | 71 | 1015.3 |
| 20260508001058 | 52 | 161 | 2.0 | 7.0 | 0.00 | 0.00 | 0.00 | 71 | 1015.4 |
| 20260508000559 | 52 | 0 | 1.0 | 3.0 | 0.00 | 0.00 | 0.00 | 70 | 1015.4 |
| 20260507235602 | 52 | 117 | 1.0 | 4.0 | 0.00 | 0.00 | 0.00 | 70 | 1015.4 |
| 20260507235058 | 52 | 109 | 1.0 | 5.0 | 0.00 | 0.00 | 0.00 | 70 | 1015.4 |
| 20260507234557 | 52 | 136 | 2.0 | 6.0 | 0.00 | 0.00 | 0.00 | 70 | 1015.4 |
| 20260507234101 | 52 | 123 | 1.0 | 6.0 | 0.00 | 0.00 | 0.00 | 69 | 1015.4 |
| 20260507233558 | 52 | 126 | 2.0 | 6.0 | 0.00 | 0.00 | 0.00 | 68 | 1015.4 |
| 20260507233059 | 52 | 105 | 1.0 | 3.0 | 0.00 | 0.00 | 0.00 | 67 | 1015.3 |
| 20260507232600 | 52 | 80 | 1.0 | 3.0 | 0.00 | 0.00 | 0.00 | 67 | 1015.4 |
| 20260507232102 | 52 | 82 | 0.0 | 3.0 | 0.00 | 0.00 | 0.00 | 66 | 1015.5 |
| 20260507231602 | 52 | 139 | 1.0 | 3.0 | 0.00 | 0.00 | 0.00 | 66 | 1015.4 |
| 20260507231100 | 52 | 0 | 1.0 | 3.0 | 0.00 | 0.00 | 0.00 | 66 | 1015.4 |
| 20260507230602 | 52 | 128 | 0.0 | 4.0 | 0.00 | 0.00 | 0.00 | 67 | 1015.5 |
| 20260507230101 | 52 | 125 | 0.0 | 4.0 | 0.00 | 0.00 | 0.00 | 68 | 1015.5 |
| 20260507225559 | 51 | 0 | 1.0 | 4.0 | 0.00 | 0.00 | 0.00 | 69 | 1015.5 |
| 20260507225059 | 51 | 95 | 1.0 | 3.0 | 0.00 | 0.00 | 0.00 | 70 | 1015.5 |
| 20260507224616 | 51 | 96 | 1.0 | 3.0 | 0.00 | 0.00 | 0.00 | 72 | 1015.4 |
| 20260507224058 | 51 | 0 | 1.0 | 3.0 | 0.00 | 0.00 | 0.00 | 73 | 1015.4 |
| 20260507223558 | 51 | 0 | 0.0 | 3.0 | 0.00 | 0.00 | 0.00 | 75 | 1015.5 |
| 20260507223104 | 51 | 110 | 1.0 | 3.0 | 0.00 | 0.00 | 0.00 | 75 | 1015.5 |
| 20260507222559 | 51 | 82 | 0.0 | 2.0 | 0.00 | 0.00 | 0.00 | 77 | 1015.5 |
| 20260507222059 | 51 | 0 | 0.0 | 2.0 | 0.00 | 0.00 | 0.00 | 76 | 1015.6 |
| 20260507221600 | 52 | 0 | 0.0 | 2.0 | 0.00 | 0.00 | 0.00 | 74 | 1015.5 |
| 20260507221100 | 52 | 0 | 0.0 | 2.0 | 0.00 | 0.00 | 0.00 | 72 | 1015.5 |
| 20260507220558 | 52 | 0 | 0.0 | 2.0 | 0.00 | 0.00 | 0.00 | 73 | 1015.5 |
| 20260507220104 | 51 | 99 | 1.0 | 4.0 | 0.00 | 0.00 | 0.00 | 73 | 1015.6 |
| 20260507215559 | 51 | 115 | 1.0 | 4.0 | 0.00 | 0.00 | 0.00 | 73 | 1015.6 |
| 20260507215059 | 51 | 155 | 1.0 | 4.0 | 0.00 | 0.00 | 0.00 | 74 | 1015.6 |
| 20260507214606 | 51 | 92 | 0.0 | 4.0 | 0.00 | 0.00 | 0.00 | 76 | 1015.7 |
| 20260507214058 | 50 | 69 | 1.0 | 4.0 | 0.00 | 0.00 | 0.00 | 78 | 1015.6 |
| 20260507213558 | 50 | 0 | 0.0 | 0.0 | 0.00 | 0.00 | 0.00 | 81 | 1015.7 |
| 20260507213059 | 51 | 0 | 0.0 | 0.0 | 0.00 | 0.00 | 0.00 | 81 | 1015.7 |
| 20260507212558 | 51 | 0 | 0.0 | 0.0 | 0.00 | 0.00 | 0.00 | 79 | 1015.6 |
| 20260507212100 | 52 | 0 | 0.0 | 0.0 | 0.00 | 0.00 | 0.00 | 77 | 1015.6 |
| 20260507211629 | 52 | 0 | 0.0 | 2.0 | 0.00 | 0.00 | 0.00 | 78 | 1015.4 |
| 20260507211058 | 52 | 0 | 0.0 | 2.0 | 0.00 | 0.00 | 0.00 | 78 | 1015.5 |
| 20260507210559 | 52 | 0 | 0.0 | 2.0 | 0.00 | 0.00 | 0.00 | 78 | 1015.4 |
| 20260507210103 | 52 | 0 | 1.0 | 2.0 | 0.00 | 0.00 | 0.00 | 78 | 1015.4 |
| 20260507205602 | 52 | 57 | 1.0 | 2.0 | 0.00 | 0.00 | 0.00 | 78 | 1015.4 |
| 20260507205059 | 52 | 57 | 1.0 | 2.0 | 0.00 | 0.00 | 0.00 | 79 | 1015.4 |
| 20260507204606 | 52 | 57 | 1.0 | 2.0 | 0.00 | 0.00 | 0.00 | 79 | 1015.4 |
| 20260507204058 | 52 | 0 | 0.0 | 1.0 | 0.00 | 0.00 | 0.00 | 79 | 1015.4 |
| 20260507203559 | 52 | 0 | 0.0 | 1.0 | 0.00 | 0.00 | 0.00 | 79 | 1015.4 |
| 20260507203110 | 52 | 0 | 0.0 | 2.0 | 0.00 | 0.00 | 0.00 | 78 | 1015.2 |
| 20260507202558 | 53 | 0 | 0.0 | 2.0 | 0.00 | 0.00 | 0.00 | 77 | 1015.3 |
| 20260507202058 | 53 | 57 | 1.0 | 2.0 | 0.00 | 0.00 | 0.00 | 77 | 1015.2 |
| 20260507201613 | 53 | 57 | 1.0 | 2.0 | 0.00 | 0.00 | 0.00 | 77 | 1015.1 |
| 20260507201059 | 53 | 57 | 0.0 | 2.0 | 0.00 | 0.00 | 0.00 | 78 | 1015.1 |
| 20260507200601 | 53 | 0 | 0.0 | 1.0 | 0.00 | 0.00 | 0.00 | 78 | 1015.1 |
| 20260507200104 | 53 | 57 | 0.0 | 2.0 | 0.00 | 0.00 | 0.00 | 77 | 1015.0 |
| 20260507195604 | 54 | 0 | 0.0 | 2.0 | 0.00 | 0.00 | 0.00 | 77 | 1015.0 |
| 20260507195102 | 54 | 28 | 0.0 | 2.0 | 0.00 | 0.00 | 0.00 | 75 | 1015.0 |
| 20260507194558 | 54 | 0 | 0.0 | 2.0 | 0.00 | 0.00 | 0.00 | 76 | 1015.0 |
| 20260507194103 | 54 | 347 | 1.0 | 2.0 | 0.00 | 0.00 | 0.00 | 75 | 1015.0 |
| 20260507193558 | 54 | 340 | 0.0 | 1.0 | 0.00 | 0.00 | 0.00 | 76 | 1015.0 |
| 20260507193101 | 54 | 0 | 0.0 | 0.0 | 0.00 | 0.00 | 0.00 | 77 | 1014.9 |
| 20260507192558 | 54 | 0 | 0.0 | 0.0 | 0.00 | 0.00 | 0.00 | 76 | 1014.9 |
| 20260507192058 | 55 | 0 | 0.0 | 1.0 | 0.00 | 0.00 | 0.00 | 76 | 1014.7 |
| 20260507191558 | 55 | 0 | 0.0 | 1.0 | 0.00 | 0.00 | 0.00 | 74 | 1014.9 |
| 20260507191057 | 55 | 0 | 0.0 | 1.0 | 0.00 | 0.00 | 0.00 | 76 | 1014.7 |
| 20260507190604 | 55 | 0 | 0.0 | 2.0 | 0.00 | 0.00 | 0.00 | 75 | 1014.6 |
| 20260507190057 | 55 | 0 | 0.0 | 2.0 | 0.00 | 0.00 | 0.00 | 73 | 1014.6 |
| 20260507185557 | 55 | 336 | 0.0 | 2.0 | 0.00 | 0.00 | 0.00 | 72 | 1014.6 |
| 20260507185102 | 55 | 336 | 0.0 | 4.0 | 0.00 | 0.00 | 0.00 | 72 | 1014.6 |
| 20260507184556 | 55 | 319 | 1.0 | 4.0 | 0.00 | 0.00 | 0.00 | 73 | 1014.6 |
| 20260507184059 | 56 | 288 | 2.0 | 4.0 | 0.00 | 0.00 | 0.00 | 73 | 1014.7 |
| 20260507183558 | 56 | 319 | 2.0 | 4.0 | 0.00 | 0.00 | 0.00 | 73 | 1014.7 |
| 20260507183058 | 56 | 270 | 2.0 | 6.0 | 0.00 | 0.00 | 0.00 | 71 | 1014.8 |
| 20260507182559 | 57 | 277 | 1.0 | 6.0 | 0.00 | 0.00 | 0.00 | 72 | 1014.8 |
| 20260507182102 | 57 | 291 | 3.0 | 6.0 | 0.00 | 0.00 | 0.00 | 69 | 1014.7 |
| 20260507181559 | 58 | 298 | 2.0 | 3.0 | 0.00 | 0.00 | 0.00 | 70 | 1014.6 |
| 20260507181058 | 58 | 288 | 2.0 | 4.0 | 0.00 | 0.00 | 0.00 | 70 | 1014.6 |
| 20260507180602 | 58 | 327 | 1.0 | 4.0 | 0.00 | 0.00 | 0.00 | 67 | 1014.6 |
| 20260507180058 | 59 | 302 | 1.0 | 4.0 | 0.00 | 0.00 | 0.00 | 67 | 1014.6 |
| 20260507175558 | 59 | 344 | 1.0 | 2.0 | 0.00 | 0.00 | 0.00 | 66 | 1014.5 |
| 20260507175058 | 59 | 0 | 0.0 | 4.0 | 0.00 | 0.00 | 0.00 | 65 | 1014.6 |
| 20260507174600 | 60 | 0 | 1.0 | 4.0 | 0.00 | 0.00 | 0.00 | 65 | 1014.6 |
| 20260507174059 | 59 | 324 | 2.0 | 4.0 | 0.00 | 0.00 | 0.00 | 67 | 1014.5 |
| 20260507173559 | 59 | 306 | 1.0 | 4.0 | 0.00 | 0.00 | 0.00 | 66 | 1014.5 |
| 20260507173100 | 59 | 295 | 2.0 | 6.0 | 0.00 | 0.00 | 0.00 | 66 | 1014.5 |
| 20260507172601 | 59 | 352 | 3.0 | 7.0 | 0.00 | 0.00 | 0.00 | 66 | 1014.5 |
| 20260507172059 | 59 | 311 | 3.0 | 7.0 | 0.00 | 0.00 | 0.00 | 65 | 1014.6 |
| 20260507171607 | 59 | 294 | 1.0 | 5.0 | 0.00 | 0.00 | 0.00 | 68 | 1014.5 |
| 20260507171059 | 59 | 243 | 2.0 | 5.0 | 0.00 | 0.00 | 0.00 | 70 | 1014.5 |
| 20260507170559 | 59 | 269 | 2.0 | 8.0 | 0.00 | 0.00 | 0.00 | 68 | 1014.6 |
| 20260507170059 | 59 | 292 | 3.0 | 8.0 | 0.00 | 0.00 | 0.00 | 67 | 1014.5 |
| 20260507165558 | 59 | 317 | 2.0 | 7.0 | 0.00 | 0.00 | 0.00 | 69 | 1014.5 |
| 20260507165100 | 59 | 352 | 4.0 | 8.0 | 0.00 | 0.00 | 0.00 | 70 | 1014.5 |
| 20260507164602 | 59 | 317 | 4.0 | 8.0 | 0.00 | 0.00 | 0.00 | 68 | 1014.5 |
| 20260507164058 | 60 | 284 | 1.0 | 7.0 | 0.00 | 0.00 | 0.00 | 67 | 1014.5 |
| 20260507163603 | 60 | 251 | 4.0 | 7.0 | 0.00 | 0.00 | 0.00 | 69 | 1014.6 |
| 20260507163058 | 61 | 234 | 3.0 | 7.0 | 0.00 | 0.00 | 0.00 | 63 | 1014.5 |
| 20260507162558 | 61 | 291 | 1.0 | 10.0 | 0.00 | 0.00 | 0.00 | 63 | 1014.5 |
| 20260507162058 | 61 | 229 | 4.0 | 10.0 | 0.00 | 0.00 | 0.00 | 64 | 1014.5 |
| 20260507161600 | 61 | 166 | 3.0 | 10.0 | 0.00 | 0.00 | 0.00 | 58 | 1014.5 |
| 20260507161059 | 61 | 221 | 5.0 | 13.0 | 0.00 | 0.00 | 0.00 | 55 | 1014.5 |
| 20260507160559 | 61 | 232 | 6.0 | 13.0 | 0.00 | 0.00 | 0.00 | 57 | 1014.6 |
| 20260507160106 | 62 | 205 | 5.0 | 11.0 | 0.00 | 0.00 | 0.00 | 55 | 1014.6 |
| 20260507155558 | 62 | 198 | 4.0 | 9.0 | 0.00 | 0.00 | 0.00 | 59 | 1014.6 |
| 20260507155058 | 61 | 154 | 4.0 | 9.0 | 0.00 | 0.00 | 0.00 | 59 | 1014.5 |
| 20260507154558 | 60 | 184 | 5.0 | 9.0 | 0.00 | 0.00 | 0.00 | 58 | 1014.6 |
| 20260507154059 | 60 | 206 | 2.0 | 10.0 | 0.00 | 0.00 | 0.00 | 59 | 1014.6 |
| 20260507153558 | 60 | 208 | 5.0 | 10.0 | 0.00 | 0.00 | 0.00 | 60 | 1014.5 |
| 20260507153102 | 60 | 280 | 5.0 | 10.0 | 0.00 | 0.00 | 0.00 | 61 | 1014.6 |
| 20260507152601 | 60 | 245 | 2.0 | 9.0 | 0.00 | 0.00 | 0.00 | 65 | 1014.6 |
| 20260507152059 | 60 | 277 | 4.0 | 9.0 | 0.00 | 0.00 | 0.00 | 61 | 1014.6 |
| 20260507151558 | 60 | 201 | 2.0 | 7.0 | 0.00 | 0.00 | 0.00 | 61 | 1014.6 |
| 20260507151058 | 60 | 211 | 3.0 | 7.0 | 0.00 | 0.00 | 0.00 | 61 | 1014.6 |
| 20260507150558 | 60 | 224 | 3.0 | 7.0 | 0.00 | 0.00 | 0.00 | 64 | 1014.6 |
| 20260507150058 | 60 | 202 | 1.0 | 6.0 | 0.00 | 0.00 | 0.00 | 61 | 1014.7 |
| 20260507145558 | 60 | 0 | 0.0 | 2.0 | 0.00 | 0.00 | 0.00 | 63 | 1014.7 |
| 20260507145058 | 59 | 0 | 0.0 | 3.0 | 0.00 | 0.00 | 0.00 | 66 | 1014.7 |
| 20260507144559 | 59 | 286 | 1.0 | 7.0 | 0.00 | 0.00 | 0.00 | 66 | 1014.8 |
| 20260507144059 | 59 | 235 | 1.0 | 7.0 | 0.00 | 0.00 | 0.00 | 67 | 1014.9 |
| 20260507143600 | 59 | 301 | 3.0 | 7.0 | 0.00 | 0.00 | 0.00 | 68 | 1014.9 |
| 20260507143100 | 59 | 291 | 3.0 | 7.0 | 0.00 | 0.00 | 0.00 | 69 | 1014.9 |
| 20260507142558 | 59 | 313 | 3.0 | 7.0 | 0.00 | 0.00 | 0.00 | 68 | 1014.9 |
| 20260507142059 | 59 | 274 | 2.0 | 6.0 | 0.00 | 0.00 | 0.00 | 67 | 1015.0 |
| 20260507141558 | 59 | 294 | 2.0 | 6.0 | 0.00 | 0.00 | 0.00 | 66 | 1015.0 |
| 20260507141139 | 59 | 313 | 2.0 | 4.0 | 0.00 | 0.00 | 0.00 | 68 | 1015.0 |
| 20260507140600 | 59 | 304 | 1.0 | 3.0 | 0.00 | 0.00 | 0.00 | 68 | 1015.1 |
| 20260507140109 | 60 | 0 | 1.0 | 4.0 | 0.00 | 0.00 | 0.00 | 65 | 1015.1 |
| 20260507135559 | 60 | 291 | 1.0 | 4.0 | 0.00 | 0.00 | 0.00 | 65 | 1015.0 |
| 20260507135103 | 60 | 309 | 1.0 | 3.0 | 0.00 | 0.00 | 0.00 | 67 | 1014.9 |
| 20260507134558 | 59 | 311 | 1.0 | 3.0 | 0.00 | 0.00 | 0.00 | 68 | 1015.0 |
| 20260507134058 | 59 | 296 | 1.0 | 3.0 | 0.00 | 0.00 | 0.00 | 66 | 1015.0 |
| 20260507133559 | 58 | 294 | 1.0 | 3.0 | 0.00 | 0.00 | 0.00 | 67 | 1015.0 |
| 20260507133056 | 58 | 332 | 0.0 | 3.0 | 0.00 | 0.00 | 0.00 | 71 | 1015.1 |
| 20260507132558 | 58 | 302 | 1.0 | 3.0 | 0.00 | 0.00 | 0.00 | 70 | 1015.1 |
| 20260507132059 | 57 | 0 | 1.0 | 3.0 | 0.00 | 0.00 | 0.00 | 71 | 1015.1 |
| 20260507131602 | 57 | 298 | 1.0 | 4.0 | 0.00 | 0.00 | 0.00 | 72 | 1015.1 |
| 20260507131059 | 57 | 298 | 2.0 | 4.0 | 0.00 | 0.00 | 0.00 | 72 | 1015.1 |
| 20260507130559 | 57 | 290 | 2.0 | 6.0 | 0.00 | 0.00 | 0.00 | 72 | 1015.1 |
| 20260507130057 | 57 | 306 | 3.0 | 6.0 | 0.00 | 0.00 | 0.00 | 75 | 1015.1 |
| 20260507125558 | 56 | 273 | 3.0 | 8.0 | 0.00 | 0.00 | 0.00 | 76 | 1015.2 |
| 20260507125058 | 56 | 289 | 3.0 | 9.0 | 0.00 | 0.00 | 0.00 | 74 | 1015.2 |
| 20260507124600 | 57 | 289 | 4.0 | 9.0 | 0.00 | 0.00 | 0.00 | 73 | 1015.2 |
| 20260507124059 | 57 | 316 | 2.0 | 9.0 | 0.00 | 0.00 | 0.00 | 73 | 1015.3 |
| 20260507123558 | 57 | 231 | 2.0 | 10.0 | 0.00 | 0.00 | 0.00 | 70 | 1015.4 |
| 20260507123100 | 57 | 282 | 5.0 | 10.0 | 0.00 | 0.00 | 0.00 | 66 | 1015.2 |
| 20260507122558 | 58 | 200 | 4.0 | 7.0 | 0.00 | 0.00 | 0.00 | 64 | 1015.2 |
| 20260507122059 | 58 | 189 | 3.0 | 8.0 | 0.00 | 0.00 | 0.00 | 61 | 1015.2 |
| 20260507121601 | 58 | 208 | 4.0 | 9.0 | 0.00 | 0.00 | 0.00 | 63 | 1015.2 |
| 20260507121058 | 58 | 182 | 5.0 | 9.0 | 0.00 | 0.00 | 0.00 | 60 | 1015.2 |
| 20260507120558 | 58 | 215 | 3.0 | 7.0 | 0.00 | 0.00 | 0.00 | 64 | 1015.2 |
| 20260507120059 | 59 | 192 | 3.0 | 7.0 | 0.00 | 0.00 | 0.00 | 61 | 1015.2 |
| 20260507115559 | 59 | 188 | 3.0 | 10.0 | 0.00 | 0.00 | 0.00 | 63 | 1015.2 |
| 20260507115058 | 59 | 150 | 4.0 | 11.0 | 0.00 | 0.00 | 0.00 | 63 | 1015.2 |
| 20260507114557 | 58 | 170 | 5.0 | 11.0 | 0.00 | 0.00 | 0.00 | 65 | 1015.3 |
| 20260507114058 | 58 | 173 | 5.0 | 11.0 | 0.00 | 0.00 | 0.00 | 64 | 1015.4 |
| 20260507113602 | 58 | 201 | 5.0 | 12.0 | 0.00 | 0.00 | 0.00 | 63 | 1015.4 |
| 20260507113059 | 58 | 165 | 7.0 | 12.0 | 0.00 | 0.00 | 0.00 | 62 | 1015.3 |
| 20260507112559 | 59 | 171 | 4.0 | 12.0 | 0.00 | 0.00 | 0.00 | 65 | 1015.3 |
| 20260507112101 | 59 | 254 | 4.0 | 12.0 | 0.00 | 0.00 | 0.00 | 63 | 1015.3 |
| 20260507111559 | 59 | 175 | 5.0 | 12.0 | 0.00 | 0.00 | 0.00 | 59 | 1015.3 |
| 20260507111058 | 60 | 211 | 6.0 | 12.0 | 0.00 | 0.00 | 0.00 | 64 | 1015.3 |
| 20260507110559 | 60 | 179 | 5.0 | 11.0 | 0.00 | 0.00 | 0.00 | 63 | 1015.3 |
| 20260507110101 | 60 | 146 | 5.0 | 12.0 | 0.00 | 0.00 | 0.00 | 64 | 1015.4 |
| 20260507105558 | 60 | 173 | 4.0 | 12.0 | 0.00 | 0.00 | 0.00 | 63 | 1015.4 |
| 20260507105058 | 59 | 180 | 6.0 | 12.0 | 0.00 | 0.00 | 0.00 | 62 | 1015.4 |
| 20260507104557 | 59 | 184 | 6.0 | 12.0 | 0.00 | 0.00 | 0.00 | 65 | 1015.5 |
| 20260507104059 | 59 | 178 | 6.0 | 10.0 | 0.00 | 0.00 | 0.00 | 64 | 1015.6 |
| 20260507103559 | 59 | 136 | 5.0 | 14.0 | 0.00 | 0.00 | 0.00 | 64 | 1015.4 |
| 20260507103057 | 59 | 156 | 6.0 | 14.0 | 0.00 | 0.00 | 0.00 | 63 | 1015.5 |